+ View the NASA Portal
+ Center for Near-Earth Object Studies
IMPORTANT:
The SSD Announcement email list is now available. Major changes are coming in the near future, including possible hostname and/or URL changes. To be notified of such changes, subscribe to this email list.
Please visit
this page
for more details.
Don't show this message again
JPL Small-Body Database Browser
Search:
[
help
]
233206 (2005 XJ27)
Classification:
Main-belt Asteroid
SPK-ID:
2233206
[
Ephemeris
|
Orbit Diagram
|
Orbital Elements
|
Mission Design
|
Physical Parameters
|
Discovery Circumstances
|
Close-Approach Data
]
[ show orbit diagram ]
Orbital Elements at Epoch 2458600.5 (2019-Apr-27.0) TDB
Reference:
JPL 6
(heliocentric ecliptic J2000)
Element
Value
Uncertainty (1-sigma)
Units
e
.1392378375307052
6.7575e-08
a
2.377603577171912
2.6206e-08
au
q
2.046551196581226
1.613e-07
au
i
4.236126401662803
8.4577e-06
deg
node
288.0381020618873
0.00012562
deg
peri
203.5937565700426
0.00013217
deg
M
188.0546227787902
4.2522e-05
deg
t
p
2459240.081066084770
(2021-Jan-25.58106609)
0.00016362
TDB
period
1339.083303730224
3.67
2.2139e-05
6.061e-08
d
yr
n
.2688406307487848
4.4448e-09
deg/d
Q
2.708655957762598
2.9855e-08
au
Orbit Determination Parameters
# obs. used (total)
95
data-arc span
6523 days (17.86 yr)
first obs. used
2001-11-16
last obs. used
2019-09-26
planetary ephem.
DE431
SB-pert. ephem.
SB431-N16
condition code
0
norm. resid. RMS
.61513
source
ORB
producer
Otto Matic
solution date
2019-Nov-08 01:34:35
Additional Information
Earth MOID
= 1.06242 au
Jupiter MOID
= 2.34284 au
T_jup
= 3.524
[ show covariance matrix ]
[
Ephemeris
|
Orbit Diagram
|
Orbital Elements
|
Mission Design
|
Physical Parameters
|
Discovery Circumstances
|
Close-Approach Data
]
Physical Parameter Table
Parameter
Symbol
Value
Units
Sigma
Reference
Notes
absolute magnitude
H
17.7
n/a
MPO454686
233206 (2005 XJ27)
Discovered 2005-Dec-05 by Healy, D. at Junk Bond
Reference:
20100228/Numbers.arc
Last Updated:
2010-03-03
[ show close-approach data ]
[
Ephemeris
|
Orbit Diagram
|
Orbital Elements
|
Mission Design
|
Physical Parameters
|
Discovery Circumstances
|
Close-Approach Data
]
2019-Dec-10 20:03 UT
(server date/time)
Site Manager:
Ryan S. Park
Webmaster
:
Alan B. Chamberlin